CW9461 Weather Reports


Display with metric or nautical units.
time (UTC)temp
F
wind
direction
speed
MPH
gust
MPH
rain 1hr
in
rain 24hr
in
rain mn
in
humidity
%
barometer
mb
20260906101104 59 127 2.0 5.0 0.00 0.00 0.00 85 1004.4
20260906100604 59 141 2.0 6.0 0.00 0.00 0.00 85 1004.4
20260906100104 59 145 2.0 7.0 0.00 0.00 0.00 85 1004.3
20260906095104 60 135 2.0 5.0 0.00 0.00 0.00 84 1004.1
20260906094605 60 158 2.0 6.0 0.00 0.00 0.00 84 1004.1
20260906094104 60 135 1.0 7.0 0.00 0.00 0.00 83 1004.1
20260906093605 60 143 2.0 6.0 0.00 0.00 0.00 83 1004.4
20260906093104 60 135 1.0 6.0 0.00 0.00 0.00 83 1004.3
20260906092604 60 125 1.0 5.0 0.00 0.00 0.00 83 1004.4
20260906092105 60 137 2.0 6.0 0.00 0.00 0.00 82 1004.4
20260906091604 60 151 1.0 5.0 0.00 0.00 0.00 82 1004.4
20260906091105 60 157 2.0 6.0 0.00 0.00 0.00 82 1004.4
20260906090604 60 135 2.0 5.0 0.00 0.00 0.00 82 1004.4
20260906090104 60 157 1.0 6.0 0.00 0.00 0.00 81 1004.4
20260906085604 60 143 2.0 5.0 0.00 0.00 0.00 81 1004.4
20260906085105 60 138 1.0 2.0 0.00 0.00 0.00 80 1004.4
20260906084604 61 124 1.0 3.0 0.00 0.00 0.00 80 1004.4
20260906084106 61 117 2.0 6.0 0.00 0.00 0.00 80 1004.4
20260906083604 61 165 1.0 3.0 0.00 0.00 0.00 79 1004.4
20260906083104 61 137 2.0 5.0 0.00 0.00 0.00 79 1004.4
20260906082604 61 118 2.0 3.0 0.00 0.00 0.00 79 1004.4
20260906082104 61 153 1.0 6.0 0.00 0.00 0.00 79 1004.4
20260906081604 61 114 2.0 3.0 0.00 0.00 0.00 79 1004.4
20260906081104 60 146 2.0 5.0 0.00 0.00 0.00 79 1004.4
20260906080603 60 135 1.0 5.0 0.00 0.00 0.00 79 1004.4
20260906080104 60 135 1.0 2.0 0.00 0.00 0.00 79 1004.4
20260906075604 60 135 1.0 3.0 0.00 0.00 0.00 79 1004.4
20260906075103 61 128 1.0 2.0 0.00 0.00 0.00 79 1004.4
20260906074604 61 138 1.0 3.0 0.00 0.00 0.00 79 1004.4
20260906074104 60 140 1.0 3.0 0.00 0.00 0.00 79 1004.4
20260906073605 60 135 1.0 3.0 0.00 0.00 0.00 79 1004.4
20260906073104 61 135 1.0 2.0 0.00 0.00 0.00 78 1004.4
20260906072604 61 135 0.0 1.0 0.00 0.00 0.00 78 1004.7
20260906072104 61 135 0.0 1.0 0.00 0.00 0.00 78 1004.4
20260906071604 61 112 0.0 1.0 0.00 0.00 0.00 78 1004.4
20260906071105 61 152 1.0 2.0 0.00 0.00 0.00 77 1004.4
20260906070103 61 136 1.0 2.0 0.00 0.00 0.00 76 1004.4
20260906065605 62 157 1.0 3.0 0.00 0.00 0.00 76 1004.7
20260906065105 62 125 1.0 5.0 0.00 0.00 0.00 75 1004.7
20260906064605 62 147 2.0 3.0 0.00 0.00 0.00 75 1004.7
20260906064104 62 143 1.0 3.0 0.00 0.00 0.00 74 1004.7
20260906063605 62 135 0.0 2.0 0.00 0.00 0.00 74 1004.7
20260906063103 62 135 1.0 3.0 0.00 0.00 0.00 74 1004.7
20260906062603 62 136 2.0 3.0 0.00 0.00 0.00 74 1004.7
20260906061604 62 135 1.0 2.0 0.00 0.00 0.00 72 1004.7
20260906061104 62 180 1.0 5.0 0.00 0.00 0.00 71 1004.7
20260906060604 62 157 0.0 3.0 0.00 0.00 0.00 71 1004.7
20260906060104 62 157 0.0 2.0 0.00 0.00 0.00 71 1004.7
20260906055603 62 157 1.0 2.0 0.00 0.00 0.00 70 1004.7
20260906055104 62 157 1.0 3.0 0.00 0.00 0.00 70 1005.1
20260906054605 62 180 0.0 5.0 0.00 0.00 0.00 70 1005.1
20260906054105 61 135 0.0 1.0 0.00 0.00 0.00 70 1005.1
20260906053605 61 157 0.0 2.0 0.00 0.00 0.00 70 1005.1
20260906053105 61 180 0.0 1.0 0.00 0.00 0.00 69 1005.1
20260906052606 62 132 0.0 1.0 0.00 0.00 0.00 69 1005.1
20260906051605 62 90 0.0 2.0 0.00 0.00 0.00 69 1005.1
20260906051105 62 90 1.0 2.0 0.00 0.00 0.00 68 1005.1
20260906050605 62 135 0.0 0.0 0.00 0.00 0.00 68 1005.1
20260906050105 62 135 0.0 2.0 0.00 0.00 0.00 69 1005.1
20260906045606 62 133 1.0 2.0 0.00 0.00 0.00 68 1005.1
20260906045105 62 90 0.0 2.0 0.00 0.00 0.00 68 1005.2
20260906044605 62 112 0.0 2.0 0.00 0.00 0.00 67 1005.1
20260906044106 62 112 0.0 1.0 0.00 0.00 0.00 67 1005.1
20260906042605 63 162 1.0 5.0 0.00 0.00 0.00 67 1005.1
20260906042105 63 202 2.0 5.0 0.00 0.00 0.00 67 1005.1
20260906041605 64 238 2.0 6.0 0.00 0.00 0.00 67 1005.1
20260906041105 64 245 1.0 8.0 0.00 0.00 0.00 67 1005.1
20260906040605 64 238 3.0 6.0 0.00 0.00 0.00 67 1005.1
20260906040106 64 245 5.0 7.0 0.00 0.00 0.00 67 1005.1
20260906035605 64 229 6.0 9.0 0.00 0.00 0.00 67 1005.1
20260906035105 65 238 5.0 10.0 0.00 0.00 0.00 66 1005.0
20260906034605 65 239 2.0 7.0 0.00 0.00 0.00 66 1004.7
20260906034105 65 247 2.0 6.0 0.00 0.00 0.00 66 1004.7
20260906033605 65 272 2.0 3.0 0.00 0.00 0.00 65 1004.7
20260906033105 65 281 3.0 6.0 0.00 0.00 0.00 64 1004.5
20260906032604 65 236 2.0 6.0 0.00 0.00 0.00 64 1004.4
20260906032106 66 247 2.0 3.0 0.00 0.00 0.00 63 1004.4
20260906031605 66 258 1.0 5.0 0.00 0.00 0.00 63 1004.4
20260906031104 66 277 2.0 5.0 0.00 0.00 0.00 62 1004.3
20260906030605 67 278 2.0 6.0 0.00 0.00 0.00 61 1004.1
20260906030105 67 277 2.0 5.0 0.00 0.00 0.00 60 1004.4
20260906025607 67 260 2.0 3.0 0.00 0.00 0.00 59 1004.1
20260906024605 68 245 3.0 8.0 0.00 0.00 0.00 58 1004.1
20260906024106 68 230 3.0 10.0 0.00 0.00 0.00 57 1004.1
20260906023605 69 245 3.0 8.0 0.00 0.00 0.00 56 1004.1
20260906023105 69 239 3.0 8.0 0.00 0.00 0.00 54 1004.1
20260906022605 70 257 3.0 6.0 0.00 0.00 0.00 53 1004.1
20260906021604 71 266 3.0 9.0 0.00 0.00 0.00 51 1004.0
20260906021106 71 279 3.0 7.0 0.00 0.00 0.00 50 1004.1
20260906020605 71 290 3.0 8.0 0.00 0.00 0.00 50 1004.1
20260906020105 72 249 3.0 10.0 0.00 0.00 0.00 50 1004.1
20260906015605 72 264 2.0 6.0 0.00 0.00 0.00 49 1004.1
20260906015106 72 238 3.0 7.0 0.00 0.00 0.00 49 1004.1
20260906014605 72 252 2.0 5.0 0.00 0.00 0.00 49 1004.1
20260906014105 72 267 2.0 6.0 0.00 0.00 0.00 48 1003.8
20260906013105 73 294 2.0 5.0 0.00 0.00 0.00 47 1003.7
20260906012605 73 260 3.0 8.0 0.00 0.00 0.00 47 1003.9
20260906012105 74 276 2.0 5.0 0.00 0.00 0.00 46 1003.7
20260906011604 74 281 2.0 5.0 0.00 0.00 0.00 45 1003.8
20260906011104 75 263 3.0 7.0 0.00 0.00 0.00 44 1003.8
20260906010605 76 271 2.0 5.0 0.00 0.00 0.00 42 1003.7
20260906010106 77 241 2.0 7.0 0.00 0.00 0.00 40 1003.7
20260906005605 78 274 3.0 7.0 0.00 0.00 0.00 38 1003.7
20260906005106 78 270 2.0 7.0 0.00 0.00 0.00 38 1003.7
20260906004105 77 227 2.0 6.0 0.00 0.00 0.00 39 1003.7
20260906003605 77 242 3.0 6.0 0.00 0.00 0.00 39 1003.7
20260906003106 77 217 2.0 6.0 0.00 0.00 0.00 39 1003.7
20260906002605 77 260 3.0 6.0 0.00 0.00 0.00 39 1003.7
20260906001605 78 242 2.0 6.0 0.00 0.00 0.00 38 1003.4
20260906001104 78 276 2.0 5.0 0.00 0.00 0.00 38 1003.4
20260906000604 79 240 3.0 6.0 0.00 0.00 0.00 38 1003.4
20260906000104 80 238 4.0 8.0 0.00 0.00 0.00 38 1003.4
20260905235605 80 236 4.0 8.0 0.00 0.00 0.00 38 1003.4
20260905235105 80 243 4.0 7.0 0.00 0.00 0.00 38 1003.4
20260905234606 80 236 2.0 8.0 0.00 0.00 0.00 39 1003.4
20260905234105 80 247 4.0 8.0 0.00 0.00 0.00 39 1003.4
20260905233605 80 283 3.0 8.0 0.00 0.00 0.00 39 1003.4
20260905233105 80 280 4.0 8.0 0.00 0.00 0.00 39 1003.4
20260905232604 80 305 3.0 7.0 0.00 0.00 0.00 38 1003.4
20260905232104 80 261 3.0 6.0 0.00 0.00 0.00 38 1003.4
20260905231605 80 277 4.0 8.0 0.00 0.00 0.00 37 1003.4
20260905231105 80 277 3.0 10.0 0.00 0.00 0.00 37 1003.6
20260905230605 80 230 4.0 7.0 0.00 0.00 0.00 38 1003.4
20260905230105 80 257 3.0 12.0 0.00 0.00 0.00 39 1003.7
20260905225104 80 247 4.0 12.0 0.00 0.00 0.00 37 1003.7
20260905224105 80 280 4.0 10.0 0.00 0.00 0.00 36 1003.7
20260905223605 80 258 5.0 13.0 0.00 0.00 0.00 36 1003.7
20260905223105 80 273 3.0 6.0 0.00 0.00 0.00 35 1003.7
20260905222604 80 303 5.0 12.0 0.00 0.00 0.00 33 1003.7
20260905222106 80 288 4.0 12.0 0.00 0.00 0.00 33 1003.7
20260905221604 80 280 4.0 7.0 0.00 0.00 0.00 33 1003.7
20260905221104 80 257 3.0 8.0 0.00 0.00 0.00 34 1003.7
20260905220605 80 262 5.0 8.0 0.00 0.00 0.00 34 1003.9
20260905220105 80 286 5.0 10.0 0.00 0.00 0.00 35 1003.7
20260905215605 80 271 5.0 9.0 0.00 0.00 0.00 35 1003.9
20260905215104 80 255 3.0 8.0 0.00 0.00 0.00 36 1003.8
20260905214605 79 278 3.0 10.0 0.00 0.00 0.00 37 1004.1
20260905214105 79 297 3.0 8.0 0.00 0.00 0.00 37 1004.1
20260905213606 79 271 4.0 13.0 0.00 0.00 0.00 38 1003.9
20260905212606 79 255 4.0 10.0 0.00 0.00 0.00 39 1004.1
20260905212104 79 261 5.0 8.0 0.00 0.00 0.00 40 1004.1
20260905211604 79 271 5.0 9.0 0.00 0.00 0.00 41 1004.1
20260905211105 79 294 5.0 8.0 0.00 0.00 0.00 41 1004.1
20260905210605 79 286 5.0 14.0 0.00 0.00 0.00 41 1004.1
20260905210105 79 274 4.0 8.0 0.00 0.00 0.00 41 1004.1
20260905205605 79 270 3.0 10.0 0.00 0.00 0.00 42 1004.1
20260905205105 79 263 3.0 8.0 0.00 0.00 0.00 43 1004.1
20260905204605 78 292 4.0 10.0 0.00 0.00 0.00 44 1004.1
20260905204105 78 286 3.0 8.0 0.00 0.00 0.00 45 1004.1
20260905203605 78 306 2.0 8.0 0.00 0.00 0.00 45 1004.1
20260905201604 77 275 3.0 10.0 0.00 0.00 0.00 46 1004.4
20260905201105 77 317 4.0 8.0 0.00 0.00 0.00 46 1004.4
20260905195606 77 330 2.0 5.0 0.00 0.00 0.00 47 1004.4
20260905195104 77 262 2.0 5.0 0.00 0.00 0.00 47 1004.7
20260905194604 76 317 3.0 8.0 0.00 0.00 0.00 48 1004.7
20260905193605 76 241 2.0 8.0 0.00 0.00 0.00 49 1004.7
20260905193104 76 238 3.0 8.0 0.00 0.00 0.00 49 1004.9
20260905192606 76 337 2.0 5.0 0.00 0.00 0.00 50 1004.9
20260905192104 75 308 2.0 5.0 0.00 0.00 0.00 51 1004.9
20260905191604 75 105 1.0 5.0 0.00 0.00 0.00 51 1005.1
20260905190604 74 243 1.0 5.0 0.00 0.00 0.00 53 1005.1
20260905190105 74 231 3.0 6.0 0.00 0.00 0.00 53 1005.1
20260905185604 74 228 1.0 6.0 0.00 0.00 0.00 54 1005.1
20260905185105 74 232 3.0 7.0 0.00 0.00 0.00 54 1005.1
20260905184604 73 209 2.0 5.0 0.00 0.00 0.00 55 1005.1
20260905184104 73 270 1.0 7.0 0.00 0.00 0.00 55 1005.1
20260905183604 73 272 3.0 7.0 0.00 0.00 0.00 56 1005.4
20260905183104 73 235 5.0 8.0 0.00 0.00 0.00 56 1005.1
20260905182604 72 212 2.0 5.0 0.00 0.00 0.00 57 1005.3
20260905182105 72 290 3.0 8.0 0.00 0.00 0.00 57 1005.4
20260905181604 72 279 2.0 5.0 0.00 0.00 0.00 58 1005.3
20260905181104 71 266 3.0 6.0 0.00 0.00 0.00 58 1005.4
20260905180604 71 239 3.0 6.0 0.00 0.00 0.00 57 1005.4
20260905180104 70 241 1.0 5.0 0.00 0.00 0.00 59 1005.4
20260905175605 70 241 1.0 5.0 0.00 0.00 0.00 59 1005.4
20260905175104 70 241 1.0 5.0 0.00 0.00 0.00 59 1005.4
20260905173605 69 241 3.0 6.0 0.00 0.00 0.00 62 1005.4
20260905173104 69 318 2.0 5.0 0.00 0.00 0.00 63 1005.4
20260905172604 69 299 2.0 6.0 0.00 0.00 0.00 64 1005.2
20260905171605 68 241 3.0 6.0 0.00 0.00 0.00 67 1005.4
20260905171105 68 245 2.0 5.0 0.00 0.00 0.00 68 1005.1
20260905170604 68 240 3.0 5.0 0.00 0.00 0.00 68 1005.1
20260905170105 69 293 2.0 3.0 0.00 0.00 0.00 67 1005.1
20260905165604 69 271 1.0 2.0 0.00 0.00 0.00 67 1005.1
20260905164604 68 67 1.0 3.0 0.00 0.00 0.00 69 1005.1
20260905164106 67 151 1.0 3.0 0.00 0.00 0.00 71 1005.1
20260905163605 67 140 1.0 3.0 0.00 0.00 0.00 72 1005.3
20260905163104 66 224 1.0 2.0 0.00 0.00 0.00 73 1005.1
20260905162604 65 202 2.0 5.0 0.00 0.00 0.00 74 1005.1
20260905162106 65 202 2.0 5.0 0.00 0.00 0.00 74 1005.3
20260905161604 65 202 1.0 2.0 0.00 0.00 0.00 75 1005.3
20260905160604 64 225 1.0 3.0 0.00 0.00 0.00 77 1005.4
20260905160105 64 139 2.0 2.0 0.00 0.00 0.00 78 1005.4
20260905154604 61 124 0.0 6.0 0.00 0.00 0.00 83 1005.4
20260905153104 59 112 0.0 3.0 0.00 0.00 0.00 87 1005.4
20260905152104 57 77 2.0 3.0 0.00 0.00 0.00 89 1005.2
20260905151604 57 77 2.0 3.0 0.00 0.00 0.00 89 1005.2
20260905150604 55 135 1.0 3.0 0.00 0.00 0.00 91 1005.4
20260905145105 55 131 2.0 3.0 0.00 0.00 0.00 91 1005.2
20260905144605 55 117 1.0 5.0 0.00 0.00 0.00 91 1005.1
20260905144104 55 112 1.0 3.0 0.00 0.00 0.00 91 1005.2
20260905143604 55 137 1.0 3.0 0.00 0.00 0.00 91 1005.4
20260905143105 54 124 1.0 3.0 0.00 0.00 0.00 91 1005.1
20260905142604 54 103 1.0 3.0 0.00 0.00 0.00 91 1005.1
20260905142104 54 122 1.0 3.0 0.00 0.00 0.00 91 1005.1
20260905141604 55 144 1.0 3.0 0.00 0.00 0.00 91 1005.1
20260905141105 55 128 1.0 5.0 0.00 0.00 0.00 91 1005.1
20260905140105 55 135 1.0 3.0 0.00 0.00 0.00 91 1005.1
20260905135604 55 157 1.0 3.0 0.00 0.00 0.00 91 1005.1
20260905135104 55 110 0.0 2.0 0.00 0.00 0.00 91 1004.7
20260905134104 55 112 0.0 2.0 0.00 0.00 0.00 91 1004.7
20260905133605 55 135 1.0 2.0 0.00 0.00 0.00 91 1004.9
20260905133104 55 112 1.0 2.0 0.00 0.00 0.00 91 1004.7
20260905132605 55 67 0.0 3.0 0.00 0.00 0.00 91 1004.7
20260905131605 55 123 1.0 3.0 0.00 0.00 0.00 91 1004.7
20260905131104 55 112 1.0 2.0 0.00 0.00 0.00 91 1004.7
20260905130604 55 108 2.0 5.0 0.00 0.00 0.00 90 1004.7
20260905130104 55 135 1.0 3.0 0.00 0.00 0.00 90 1004.7
20260905125604 55 147 1.0 2.0 0.00 0.00 0.00 90 1004.7
20260905124604 55 135 1.0 3.0 0.00 0.00 0.00 90 1004.7
20260905124104 55 135 2.0 5.0 0.00 0.00 0.00 89 1004.7
20260905123605 55 153 2.0 3.0 0.00 0.00 0.00 89 1004.7
20260905123104 55 113 1.0 2.0 0.00 0.00 0.00 89 1004.7
20260905122605 55 125 2.0 3.0 0.00 0.00 0.00 89 1004.7
20260905122105 55 157 2.0 3.0 0.00 0.00 0.00 89 1004.7
20260905121604 55 67 1.0 2.0 0.00 0.00 0.00 89 1004.7
20260905121104 55 157 0.0 3.0 0.00 0.00 0.00 89 1004.7
20260905115605 55 140 1.0 5.0 0.00 0.00 0.00 88 1004.7
20260905115104 55 157 1.0 5.0 0.00 0.00 0.00 88 1004.7
20260905114603 55 137 1.0 3.0 0.00 0.00 0.00 88 1004.7
20260905114104 55 155 2.0 3.0 0.00 0.00 0.00 88 1004.7
20260905113604 55 157 1.0 3.0 0.00 0.00 0.00 88 1004.7
20260905112604 55 135 1.0 3.0 0.00 0.00 0.00 88 1004.7
20260905112104 55 161 2.0 6.0 0.00 0.00 0.00 88 1004.7
20260905111104 55 135 1.0 3.0 0.00 0.00 0.00 87 1004.9
20260905110105 55 157 2.0 3.0 0.00 0.00 0.00 87 1004.9
20260905105604 55 124 1.0 5.0 0.00 0.00 0.00 87 1004.7
20260905105105 55 139 1.0 2.0 0.00 0.00 0.00 86 1004.7
20260905104604 55 151 1.0 2.0 0.00 0.00 0.00 86 1004.7
20260905103605 56 135 0.0 1.0 0.00 0.00 0.00 86 1004.7
20260905103104 56 135 0.0 2.0 0.00 0.00 0.00 86 1004.9
20260905102604 56 135 2.0 3.0 0.00 0.00 0.00 86 1005.1
20260905101604 56 132 1.0 3.0 0.00 0.00 0.00 85 1005.1